Regional Weather Roundup
Issued by NWS Midland/Odessa, TX

Skip options and go directly to product.
Home | Oldest Version | Previous Version | Current Version | All | Graphics & Text | Save Text | Print | Product List | Glossary On

Skip product version selection by date and time.   
668
ASUS44 KMAF 040710
RWRMAF
MIDLAND AREA WEATHER ROUNDUP
NATIONAL WEATHER SERVICE MIDLAND TX
200 AM CDT FRI SEP 04 2015

...IN SOUTHWEST TEXAS AND SOUTHEAST NEW MEXICO...

CITY           SKY/WX    TMP DP  RH WIND       PRES   REMARKS
ALPINE         CLEAR     71  53  53 SW6       30.10F
ANDREWS        FAIR      71  53  52 S6        29.97F
ARTESIA        PTCLDY    79  50  36 S9        29.97S
BIG SPRING     CLEAR     77  55  47 SE12      29.96S
CARLSBAD       MOCLDY    78  48  34 S6        29.95S
DRYDEN           N/A     81  58  45 VRB7      29.90F
FORT STOCKTON  CLEAR     73  51  46 S8        29.95S
GUAD PASS      MOCLDY    75  45  34 NE8       30.11F
HOBBS            N/A     68  52  56 S6        30.00S
MARFA          PTCLDY    61  48  63 NE3       30.09S
MIDLAND AIRPK  CLEAR     78  55  43 SE8       29.95S
MIDLAND INTL   CLEAR     75  55  49 SE6       29.94S
ODESSA         CLEAR     75  51  43 SE5       29.95F
PECOS          CLEAR     73  48  41 E7        29.91F
PRESIDIO       FAIR      84  55  36 MISG      29.91S
SEMINOLE       CLEAR     70  51  51 S3        29.99S
SNYDER         CLEAR     77  60  55 SE10      29.95S
WINK           CLEAR     75  52  44 SE6       29.92S
$$
...OTHER STATIONS IN TEXAS...

CITY           SKY/WX    TMP DP  RH WIND       PRES   REMARKS
ABILENE        CLEAR     76  63  64 S12       29.92F
AMARILLO       MOCLDY    77  55  46 S14       29.97S
AUSTIN         PTCLDY    75  71  87 S5        29.91S
BROWNSVILLE    PTCLDY    79  77  94 SE7       29.88S
CORPUS CHRISTI PTCLDY    78  75  90 S6        29.87F
DALLAS FTW     PTCLDY    82  68  62 SE8       29.89S
DEL RIO        CLEAR     82  66  58 E10       29.87R
EL PASO        CLOUDY    81  54  39 W7        29.99S
HOUSTON INT    PTCLDY    76  74  93 SE5       29.89S
LUBBOCK        MOCLDY    74  55  51 S12       29.97S
SAN ANGELO     CLEAR     79  62  56 S9        29.91S
SAN ANTONIO    MOCLDY    79  72  79 S8        29.92S
WACO           CLEAR     80  70  71 S12       29.91R
WICHITA FALLS  NOT AVBL
$$
...OTHER LOCATIONS IN NEW MEXICO...

CITY           SKY/WX    TMP DP  RH WIND       PRES   REMARKS
ALAMAGORDO     PTCLDY    72  48  43 CALM      30.02S
ALBUQUERQUE    MOCLDY    72  49  44 SE6       30.09F
CANNON AFB     MOCLDY    75  51  42 S8        30.01S
CLOVIS         MOCLDY    73  50  43 S8        30.03S
HOLLOMAN AFB   CLEAR     72  52  50 SE6       29.99F
ROSWELL        PTCLDY    77  47  34 S10       29.96R
RUIDOSO        PTCLDY    64  46  52 W6        30.21F
SANTA FE       PTCLDY    68  43  40 W12       30.13S
TRUTH OR CONSE MOCLDY    67  57  70 NW7       30.06R
TUCUMCARI      PTCLDY    75  48  38 S10       29.96S
$$

USA.gov is the U.S. government's official web portal to all federal, state and local government web resources and services.